Location: Grand Mazuras
(45.9128°N, 1.7636°E)
Time: 04:55:56
(UTC+00:00)

Cosmos 2219 - Pass Details

Date: 18 April 2021
Orbit: 834 x 860 km, 71.1° (Epoch: 15 May)

Event Time Altitude Azimuth Distance (km) Brightness Sun altitude
Exits shadow 20:05:44 20° 126° (SE) 1,852 4.3 -13.7°
Maximum altitude 20:07:24 23° 101° (E) 1,725 4.3 -14.0°
Drops below altitude 10° 20:11:39 10° 52° (NE) 2,453 5.4 -14.6°
Sets 20:14:34 0° 38° (NE) 3,394 6.3 -15.0°
